Location: Pasadena, ca
(34.1243°N, 118.1037°W)
Time: 12:53:12
(UTC-08:00)

OTV 5 (USA 277) - Pass Details

Date: 19 November 2017
Orbit: 404 x 417 km, 43.0° (Epoch: 07 September)

Event Time Altitude Azimuth Distance (km) Brightness Sun altitude
Exits shadow 04:21:27 18° 54° (NE) 1,082 ? -26.3°
Drops below altitude 10° 04:22:43 10° 72° (ENE) 1,453 ? -26.1°
Sets 04:25:03 0° 86° (E) 2,310 ? -25.6°
